Location: ??????
(38.3184°N, 23.6932°E)
Time: 02:35:35
(UTC+00:00)

SL-08 RB Rocket - Pass Details

Date: 16 October 2021
Orbit: 646 x 683 km, 97.8° (Epoch: 04 December)

Event Time Altitude Azimuth Distance (km) Brightness Sun altitude
Rises 17:13:27 0° 169° (SSE) 2,957 6.9 -17.9°
Reaches altitude 10° 17:15:39 10° 170° (S) 2,055 6.1 -18.4°
Maximum altitude 17:20:08 82° 257° (WSW) 670 3.7 -19.3°
Drops below altitude 10° 17:24:43 10° 346° (NNW) 2,093 6.5 -20.1°
Sets 17:26:58 0° 347° (NNW) 3,016 7.3 -20.6°
